Regional Weather Roundup
Issued by NWS Cleveland, OH

Home | Current Version | Previous Version | Text Only | Print | Product List | Glossary On
Versions: 1 2 3 4 5 6 7 8 9 10 11 12 13 14 15 16 17 18 19 20 21 22 23 24 25 26 27 28 29 30 31 32 33 34 35 36 37 38 39 40 41 42 43 44 45 46 47 48 49 50
000
ASUS41 KCLE 290610
RWRCLE
OHIO REGIONAL WEATHER ROUNDUP
NATIONAL WEATHER SERVICE CLEVELAND, OH
100 AM EST SAT NOV 29 2014

NOTE: "FAIR" INDICATES FEW OR NO CLOUDS BELOW 12,000 FEET WITH NO
SIGNIFICANT WEATHER AND/OR OBSTRUCTIONS TO VISIBILITY.

OHZ001>008-015>018-024>027-034-035-043-044-290700-
   NORTHWEST OHIO

CITY           SKY/WX    TMP DP  RH WIND       PRES   REMARKS
DEFIANCE       CLOUDY    32  21  64 S7        30.03F WCI  26
FINDLAY        CLOUDY    33  21  61 SE9       30.04F WCI  25
TOLEDO EXPRESS CLOUDY    30  21  69 SE3       30.04F
TOLEDO EXEC    CLOUDY    31  22  69 S8        30.06F WCI  23
LIMA           CLOUDY    34  20  56 S14       30.03F WCI  25
$$

OHZ009>014-019>023-028>033-038-089-290700-
   NORTHEAST OHIO

CITY           SKY/WX    TMP DP  RH WIND       PRES   REMARKS
CLE-HOPKINS    CLOUDY    30  19  63 S10       30.13F WCI  21
CLE-LAKEFRONT  CLOUDY    30  19  63 S9        30.11F WCI  22
CUY CO. ARPT   NOT AVBL
LORAIN-ELYRIA  CLOUDY    29  20  69 S9        30.11F WCI  20
ASHTABULA      CLOUDY    26  20  77 S8        30.15F WCI  18
AKRON-CANTON   CLOUDY    29  20  69 S10       30.11F WCI  20
WOOSTER        CLOUDY    28  20  71 S9        30.11F WCI  19
MANSFIELD      CLOUDY    29  20  69 S12       30.07F WCI  19
YOUNGSTOWN     CLOUDY    27  19  72 SE7       30.13F WCI  19
$$

OHZ042-051>053-060>062-070>072-077>081-290700-
  SOUTHWEST OHIO

CITY           SKY/WX    TMP DP  RH WIND       PRES   REMARKS
CINC-COVINGTON CLOUDY    33  18  53 S9        30.07S WCI  25
CINC-LUNKEN    CLOUDY    33  19  56 CALM      30.11S
HAMILTON       CLOUDY    34  19  54 VRB5      30.08F WCI  30
DAYTON         CLOUDY    32  20  61 S12       30.05F WCI  23
WRIGHT-PAT AFB CLOUDY    32  19  58 S8        30.06F WCI  25
DAYTON GENERAL CLOUDY    32  20  61 S10       30.05F WCI  24
WILMINGTON     CLOUDY    31  19  61 S8        30.08S WCI  23
$$

OHZ036-037-039>041-045>050-054>059-063>069-073>076-082>088-290700-
  CENTRAL AND SOUTHEAST OHIO

CITY           SKY/WX    TMP DP  RH WIND       PRES   REMARKS
COLUMBUS       CLOUDY    31  18  58 SE5       30.11F WCI  26
OSU AIRPORT    CLOUDY    31  18  58 SE8       30.10F WCI  23
BOLTON FIELD   CLOUDY    30  21  69 S8        30.10F WCI  22
RICKENBACK AFB CLOUDY    30  20  66 SE3       30.11S
NEWARK         CLOUDY    31  19  61 SE3       30.12F
MARION         CLOUDY    31  19  61 S15       30.07F WCI  20
LANCASTER      CLOUDY    32  19  58 SE7       30.12F WCI  26
ZANESVILLE     CLOUDY    29  19  66 S6        30.14F WCI  23
NEW PHILLY     CLOUDY    30  21  69 SE5       30.15F WCI  25
$$



USA.gov is the U.S. government's official web portal to all federal, state and local government web resources and services.